Location: Horcajo de la Sierra
(41.0672°N, 3.5853°W)
Time: 14:14:38
(UTC+00:00)

Daily predictions for brighter satellites

Satellite Brightness Start Highest point End
(mag) Time Altitude Azimuth Time Altitude Azimuth Time Altitude Azimuth
Cosmos 1605 Rocket 4.0 19:36:43 10° S 19:42:50 78° E 19:49:05 10° N
Cosmos 371 Rocket 3.8 19:43:29 10° NNW 19:48:15 62° WSW 19:52:59 10° S
Okean 1 Rocket 4.3 19:47:56 10° SE 19:51:18 22° E 19:54:42 10° NE
Cosmos 1980 Rocket 4.1 19:48:37 10° NNE 19:51:55 15° NE 19:55:12 10° E
ARIANE 6 FM1 Upper Stage 2.6 19:49:31 10° NW 19:53:30 84° SW 19:57:27 10° SSE
SL-08 R/B 4.5 19:50:23 10° NE 19:54:16 24° E 19:58:04 10° SSE
Cosmos 2084 4.1 19:50:25 10° SW 19:54:29 58° NW 19:58:35 10° NNE
SL-24 R/B 4.1 19:51:45 10° NNE 19:56:16 70° ESE 20:00:31 10° S
CZ-4 R/B 1.4 19:54:19 10° SSE 19:57:50 51° ENE 20:01:22 10° N
CZ-4B R/B 3.9 19:56:56 10° SSE 20:00:51 67° ENE 20:04:51 10° N
ASTEX 1 3.5 19:59:00 10° SSE 20:03:50 58° E 20:08:42 10° N
SPOT 5 2.7 19:59:46 10° S 20:04:04 77° W 20:08:23 10° NNW
GEOS 3 Rocket 4.0 19:59:50 10° SSE 20:05:05 68° SW 20:10:27 10° NW
Cosmos 1862 3.9 20:01:46 10° NNW 20:05:13 49° W 20:08:39 10° S
CZ-4B DEB 4.4 20:00:03 10° SSE 20:05:26 59° ENE 20:10:52 10° N
Cosmos 2056 Rocket 3.6 20:01:12 10° SSW 20:06:36 88° WNW 20:12:01 10° NNE
Cosmos 1833 Rocket 2.6 20:01:59 10° SSW 20:07:34 78° ESE 20:13:11 10° NNE
CZ-4B R/B 3.7 20:02:29 10° SE 20:07:50 45° ENE 20:13:10 10° N
CSL-04 Rocket 3.8 20:02:53 10° SSE 20:08:25 83° WSW 20:13:55 10° NNW
Cosmos 1624 Rocket 4.0 20:04:25 10° SSW 20:09:35 86° WNW 20:14:47 10° NNE
Terra 2.2 20:07:32 10° SE 20:12:00 47° ENE 20:16:30 10° N
Sich 1 Rocket 4.3 20:10:08 10° SSE 20:14:02 33° E 20:17:57 10° NNE
ATLAS 5 CENTAUR R/B 4.3 20:16:11 10° WNW 20:19:21 17° WSW 20:22:54 10° SSW
Cosmos 2058 4.1 20:16:44 10° NNW 20:20:23 40° W 20:24:01 10° SSW
SJ 16-02 2.7 20:18:10 10° NW 20:22:04 36° WSW 20:25:56 10° SSW
Resurs 01 Rocket 4.4 20:19:51 10° SW 20:22:17 15° W 20:24:44 10° WNW
MetOp-B 4.2 20:17:17 10° SSE 20:22:33 61° ENE 20:27:49 10° N
PAYLOAD B 4.2 20:18:41 10° SSE 20:24:09 75° ENE 20:29:41 10° N
USA 229 DEB 4.2 20:19:38 10° NNW 20:27:15 69° NE 20:34:05 16° SE
USA 229 4.2 20:19:41 10° NNW 20:27:18 68° NE 20:34:07 16° SE
Cosmos 44 Rocket 3.6 20:23:26 10° S 20:28:11 46° ESE 20:33:06 10° NE
Cosmos 1743 4.2 20:26:45 10° NE 20:28:18 13° ENE 20:28:34 13° E
ISS -3.5 20:26:16 10° SSW 20:29:26 44° SE 20:32:39 10° ENE
Cosmos 1459 Rocket 4.1 20:23:37 10° S 20:29:44 58° E 20:35:47 10° NNE
SKYMED 3 4.2 20:28:50 10° NNE 20:32:45 69° ESE 20:36:41 10° S
Cosmos 2100 Rocket 4.0 20:27:08 10° S 20:33:16 69° E 20:39:30 10° NNE
ATLAS 2AS CENTAUR R/B 3.8 20:30:04 10° WSW 20:36:45 48° NW 20:43:21 10° NNE
ADEOS 3.6 20:32:34 14° SSE 20:37:05 72° ENE 20:42:17 10° N
Spot 2 Rocket 3.8 20:36:58 19° SE 20:40:15 48° ENE 20:45:03 10° N
Cosmos 2151 Rocket 4.0 20:37:29 10° SSW 20:41:48 64° W 20:46:09 10° N
BREEZE-M DEB (TANK) 3.7 20:38:58 10° NW 20:41:52 50° NNE 20:47:10 16° ESE
SL-4 R/B 2.1 20:38:51 10° NW 20:42:39 59° NNE 20:44:44 25° ESE
Cosmos 2082 Rocket 3.0 20:40:45 18° SSE 20:43:48 29° ESE 20:48:39 10° NE
Okean 2 Rocket 3.1 20:39:42 10° S 20:44:10 84° W 20:48:40 10° N
Cosmos 1536 Rocket 3.9 20:49:52 10° NNW 20:54:09 62° W 20:57:49 14° S
Cosmos 1607 4.1 20:48:45 10° S 20:54:33 47° ESE 21:00:27 10° NE
Cosmos 2233 Rocket 4.4 20:51:19 21° SSE 20:54:56 42° E 21:00:41 10° NNE
IRS-1A Rocket 4.3 20:51:01 17° SSE 20:55:31 88° ENE 21:01:26 10° NNW
Cosmos 2228 3.6 20:55:36 30° ESE 20:56:21 33° E 21:00:03 10° NNE
Timation 1 Rocket 4.4 20:51:59 10° SSW 20:57:59 83° WNW 21:04:02 10° NNE
USA 186 1.7 20:58:27 46° ENE 20:58:27 46° ENE 21:00:54 10° N
Cosmos 292 Rocket 3.7 20:54:14 10° NNW 20:59:01 88° E 21:01:33 28° SSE
Okean O Rocket 1.5 20:57:28 30° SSE 20:59:30 67° ENE 21:03:46 10° N
DELTA 2 R/B (1) 3.9 20:55:26 10° SW 21:00:36 41° SSE 21:03:11 25° ESE
ERS-1 Rocket 3.8 20:59:18 10° S 21:04:05 46° W 21:08:54 10° NNW
CZ-4C R/B 1.8 21:01:37 10° SW 21:05:33 69° NW 21:10:31 10° NNE
Cosmos 1725 Rocket 3.9 21:00:02 12° S 21:05:53 77° E 21:12:09 10° N
Tsikada Rocket 4.4 21:00:24 10° N 21:06:16 44° ENE 21:08:51 29° SE
Cosmos 1452 Rocket 3.4 21:01:11 10° SSW 21:06:24 83° ESE 21:11:39 10° NNE
Cosmos 1697 Rocket 2.9 21:02:55 10° NNW 21:08:31 68° WSW 21:11:51 25° S
Cosmos 1741 Rocket 4.0 21:05:25 10° NNW 21:10:43 71° ENE 21:13:00 34° SE
SL-16 R/B 4.3 21:09:08 10° NNE 21:12:14 15° NE 21:14:58 11° ENE
Okean-O 2.5 21:10:27 33° SSE 21:12:22 90° SSW 21:16:46 10° NNW
ATLAS 3B R/B 2.9 21:09:02 10° NW 21:16:48 87° WSW 21:20:47 30° SSE
CZ-4B R/B 3.9 21:19:07 36° ESE 21:20:15 43° ENE 21:24:45 10° N
Cosmos 968 Rocket 4.0 21:16:05 10° NNW 21:21:12 55° WSW 21:24:03 25° S
USA 245 4.4 21:18:48 35° SE 21:21:18 65° ENE 21:27:08 10° N
Cosmos 1892 Rocket 3.4 21:17:53 10° N 21:22:14 87° E 21:23:28 46° S
Cosmos 1455 Rocket 3.2 21:19:52 23° SSW 21:22:34 72° W 21:26:59 10° N
Cosmos 1302 Rocket 3.8 21:21:11 26° S 21:24:07 72° ESE 21:29:17 10° NNE
Cosmos 2016 Rocket 4.0 21:19:36 15° S 21:24:58 84° W 21:31:14 10° N
Cosmos 2333 Rocket 4.2 21:21:44 10° N 21:25:14 16° NE 21:27:39 13° ENE
BREEZE-M DEB (TANK) 4.4 21:24:07 10° WNW 21:28:04 41° SSW 21:32:22 27° SSE
Cosmos 2061 Rocket 3.9 21:29:50 33° S 21:32:47 71° E 21:38:59 10° NNE
CZ-4B R/B 2.7 21:33:11 58° NE 21:33:11 58° NE 21:36:09 10° N
Cosmos 1782 2.7 21:32:58 56° SW 21:33:27 64° W 21:36:57 10° N
Cosmos 1544 Rocket 4.3 21:35:33 36° ENE 21:35:33 36° ENE 21:39:02 10° NNE
SPOT 3 Rocket 3.4 21:34:29 47° SSE 21:35:58 77° ENE 21:41:07 10° N
NOSS 3-3 (A) 3.5 21:34:26 39° S 21:36:12 62° ESE 21:41:55 10° NE
Cosmos 1980 Rocket 2.1 21:31:00 10° NNW 21:36:44 89° ENE 21:38:33 46° SSE
BREEZE-M DEB (TANK) 3.1 21:31:36 10° SW 21:36:17 50° SW 21:36:17 50° SW
Cosmos 1850 Rocket 4.5 21:39:46 10° NNW 21:44:47 53° WSW 21:46:30 37° SSW
Terra 4.2 21:46:38 10° SW 21:49:45 17° W 21:52:52 10° NW
IRS-1C Rocket 4.0 21:51:54 58° SSE 21:52:59 85° ENE 21:58:17 10° NNW
Milstar 3 4.1 21:47:06 10° WSW 21:53:39 32° S 21:54:31 32° S
CZ-2C R/B 4.3 21:55:17 22° N 21:55:17 22° N 21:56:26 10° N
Cosmos 1758 Rocket 3.9 21:49:44 10° N 21:53:42 52° ENE 21:53:42 52° ENE
Gbstr 26 Del rocket 3.0 21:56:11 10° NW 22:00:52 70° NNE 22:00:52 70° NNE
Cosmos 1743 4.4 21:58:46 10° NW 22:00:44 21° WNW 22:00:44 21° WNW
Cosmos 2360 Rocket 4.1 21:58:42 10° N 22:02:33 18° NE 22:04:14 16° ENE
NOSS 3-3 (C) 3.4 22:02:52 55° SSW 22:04:05 84° ESE 22:10:02 10° NE
ISS -1.6 22:03:26 10° W 22:06:21 27° NNW 22:08:14 17° NNE
Geosat 3.8 22:06:52 10° NNE 22:11:54 90° ESE 22:12:24 73° SSW
Cosmos 2237 4.1 22:06:48 10° NNW 22:12:34 79° ENE 22:13:13 69° SE
Ariane Rocket 3.1 22:12:25 57° SW 22:13:01 62° WSW 22:18:03 10° NNW
USA 305 4.2 22:10:18 10° NW 22:13:09 28° N 22:13:09 28° N
Meteor 2-9 4.5 22:10:41 10° N 22:16:08 84° E 22:16:32 77° SE
Cosmos 1602 Rocket 4.3 22:15:27 10° N 22:18:42 44° NNE 22:18:42 44° NNE
SL-4 R/B 4.2 22:16:47 10° W 22:18:10 17° W 22:18:10 17° W
Cosmos 2219 Rocket 4.3 22:16:36 10° N 22:20:00 16° NE 22:21:48 14° ENE
Cosmos 1437 Rocket 4.3 22:21:47 28° N 22:21:47 28° N 22:23:35 10° N
Cosmos 2082 Rocket 3.4 22:22:24 10° SW 22:27:40 40° WNW 22:33:03 10° N
Cosmos 2369 3.7 22:22:14 10° NNW 22:27:55 69° WSW 22:28:18 66° SW
Cosmos 2151 3.7 22:25:51 10° N 22:28:56 49° NNW 22:28:56 49° NNW
Cosmos 2322 Rocket 3.4 22:25:27 10° N 22:30:24 30° NE 22:31:03 29° ENE
Okean O Rocket 4.3 22:35:32 10° W 22:36:06 10° W 22:36:40 10° W
Meteor 1-5 Rocket 4.3 22:34:30 10° N 22:40:03 64° ENE 22:40:03 64° ENE
USA 234 3.1 22:35:36 10° NE 22:42:09 74° SE 22:42:49 68° S
Cosmos 2278 4.0 22:44:06 10° NNW 22:49:38 58° ENE 22:49:38 58° ENE
Helios 1A 4.4 22:46:32 10° N 22:48:44 32° N 22:48:44 32° N
COSMOS 2406 3.8 22:49:26 44° WSW 22:50:50 55° WNW 22:56:29 10° NNE
SL-16 R/B 2.2 22:51:29 10° NNW 22:56:47 78° N 22:56:47 78° N
Cosmos 1486 Rocket 4.4 22:56:22 10° NNW 23:00:50 58° NNE 23:00:50 58° NNE
Cosmos 2098 Rocket 4.0 23:02:09 53° WNW 23:02:09 53° WNW 23:06:25 10° N
Nadezhda 4 Rocket 3.8 22:56:44 10° N 23:02:50 83° W 23:02:50 83° W
Cosmos 2333 Rocket 2.3 23:04:32 10° NNW 23:09:39 72° NW 23:09:39 72° NW
BREEZE-M DEB (TANK) 4.5 23:06:45 10° W 23:16:06 51° N 23:20:57 10° ENE
Cosmos 2195 Rocket 4.4 23:14:44 10° N 23:20:43 83° NNW 23:20:43 83° NNW
Cosmos 2026 Rocket 4.0 23:21:08 10° N 23:27:17 83° NNE 23:27:17 83° NNE
DNEPR-1 R/B 4.5 23:28:16 10° NNW 23:33:34 77° N 23:33:34 77° N
ALOS 2 4.1 23:43:55 34° N 23:43:55 34° N 23:46:27 10° N
ARIANE 5 R/B 4.1 23:44:33 34° NNW 23:44:33 34° NNW 23:47:06 10° NNW
Cosmos 2360 Rocket 2.7 23:41:28 10° NNW 23:45:58 56° NW 23:45:58 56° NW
